Regional Weather Roundup
Issued by NWS

Home | Current Version | Previous Version | Text Only | Print | Product List | Glossary On
Versions: 1 2 3 4 5 6 7 8 9 10 11 12 13 14 15 16 17 18 19 20 21 22 23 24 25 26 27 28 29 30 31 32 33 34 35 36 37 38 39 40 41 42 43 44 45 46 47 48 49 50
716
ASUS43 KOAX 271202
RWRNE

WEATHER ROUNDUP FOR NEBRASKA
NATIONAL WEATHER SERVICE OMAHA NE
600 AM CST MON FEB 27 2017

NOTES: SATELLITE DATA IS BEING USED TO AUGMENT CLOUD COVER ABOVE
       12000 FEET.
       "FAIR" INDICATES FEW OR NO CLOUDS BELOW 12,000 FEET WITH NO
       SIGNIFICANT WEATHER AND/OR OBSTRUCTIONS TO VISIBILITY.

  * THESE STATIONS DO NOT REPORT WEATHER SUCH AS RAIN...SNOW OR FOG.

NEZ001>004-019>022-054>056-271300-
NEBRASKA PANHANDLE

CITY           SKY/WX    TMP DP  RH WIND       PRES   REMARKS
SCOTTSBLUFF    CLOUDY    14   6  70 E8        29.70F WCI   3
6HR MIN TEMP:  11; 6HR MAX TEMP:  18;

ALLIANCE       CLOUDY    12   5  73 SE7       29.70F WCI   1
6HR MIN TEMP:   0; 6HR MAX TEMP:  18;

CHADRON        CLOUDY    25  13  60 SW14      29.67F WCI  13
6HR MIN TEMP:   6; 6HR MAX TEMP:  30;

KIMBALL        CLOUDY    13   9  87 W3        29.69S
SIDNEY         CLOUDY    17   9  70 S9        29.72F WCI   6
6HR MIN TEMP:  16; 6HR MAX TEMP:  21;

$$

NEZ057>060-069>072-079>082-271300-
SOUTHWEST NEBRASKA

CITY           SKY/WX    TMP DP  RH WIND       PRES   REMARKS
NORTH PLATTE   CLEAR     15  11  83 CALM      29.87R
6HR MIN TEMP:  13; 6HR MAX TEMP:  20;

IMPERIAL       CLOUDY    18  10  71 N3        29.82S
6HR MIN TEMP:  15; 6HR MAX TEMP:  22;

LEXINGTON      CLEAR     17  13  86 CALM      29.88S
MCCOOK         CLEAR     14   8  77 CALM      29.86F
6HR MIN TEMP:  12; 6HR MAX TEMP:  22;

OGALLALA       CLOUDY    15  11  82 E3        29.81F
$$

NEZ005>010-023>029-035>040-094-271300-
NORTH CENTRAL NEBRASKA

CITY           SKY/WX    TMP DP  RH WIND       PRES   REMARKS
VALENTINE      CLOUDY     7   2  80 NE3       29.78F
6HR MIN TEMP:   5; 6HR MAX TEMP:  12;

AINSWORTH      CLOUDY    20  11  68 S14       29.80F WCI   7
BROKEN BOW     CLEAR     11   7  84 CALM      29.87R
6HR MIN TEMP:  10; 6HR MAX TEMP:  18;

O`NEILL        CLOUDY    15  10  79 S7        29.87S WCI   6
ORD            CLEAR     13   9  84 CALM      29.89R
6HR MIN TEMP:  12; 6HR MAX TEMP:  20;

THEDFORD       CLOUDY    20  11  68 S6        29.83S WCI  13
$$

NEZ041-046>049-061>064-073>077-083>087-271300-
SOUTH CENTRAL NEBRASKA

CITY           SKY/WX    TMP DP  RH WIND       PRES   REMARKS
GRAND ISLAND   CLEAR     22  17  81 S8        29.92S WCI  12
6HR MIN TEMP:  22; 6HR MAX TEMP:  28;

AURORA         CLEAR     27  17  64 S5        29.92S WCI  22
HASTINGS       CLEAR     26  16  65 S5        29.91F WCI  20
6HR MIN TEMP:  21; 6HR MAX TEMP:  30;

HEBRON         CLEAR     22  18  82 CALM      29.94S
HOLDREGE       CLEAR     22  11  62 S3        29.88S
KEARNEY *      CLEAR     23  12  63 S3        29.90S
$$

NEZ011>018-030>034-042>045-271300-
NORTHEAST NEBRASKA

CITY           SKY/WX    TMP DP  RH WIND       PRES   REMARKS
NORFOLK        CLEAR     18  17  96 CALM      29.91S
6HR MIN TEMP:  18; 6HR MAX TEMP:  27;

ALBION         CLEAR     17  13  85 CALM      29.91S
BLAIR          CLEAR     28  22  76 S5        29.95F WCI  23
FREMONT        CLEAR     26  22  84 CALM      29.96R
TEKAMAH        CLEAR     20  17  88 SE5       29.97S WCI  13
6HR MIN TEMP:  20; 6HR MAX TEMP:  23;

WAYNE          CLEAR     17  15  90 S6        29.92F WCI   9
$$

NEZ050>053-065>068-078-088>093-271300-
SOUTHEAST NEBRASKA

CITY           SKY/WX    TMP DP  RH WIND       PRES   REMARKS
LINCOLN        CLEAR     18  16  92 NW3       29.97S
6HR MIN TEMP:  18; 6HR MAX TEMP:  25;

OMAHA EPPLEY   CLEAR     25  19  78 S5        29.98S WCI  19
6HR MIN TEMP:  23; 6HR MAX TEMP:  30;

BEATRICE       CLEAR     24  18  78 SE3       29.96S
FALLS CITY     CLEAR     24  22  91 SE5       29.99S WCI  18
6HR MIN TEMP:  21; 6HR MAX TEMP:  32;

NEBRASKA CITY  CLEAR     25  19  75 S5        29.98S WCI  20
PLATTSMOUTH    CLEAR     28  19  69 SE7       29.97S WCI  20
$$

NEZ044-045-051>053-067-271300-
OMAHA AREA

CITY           SKY/WX    TMP DP  RH WIND       PRES   REMARKS
OMAHA EPPLEY   CLEAR     25  19  78 S5        29.98S WCI  19
6HR MIN TEMP:  23; 6HR MAX TEMP:  30;

BLAIR          CLEAR     28  22  76 S5        29.95F WCI  23
FREMONT        CLEAR     26  22  84 CALM      29.96R
MILLARD        CLEAR     24  22  93 CALM      29.98S
OFFUTT AFB     CLEAR     19  16  88 CALM      29.98R
PLATTSMOUTH    CLEAR     28  19  69 SE7       29.97S WCI  20
WAHOO          FAIR      22  20  89 SE3       29.96R
$$




USA.gov is the U.S. government's official web portal to all federal, state and local government web resources and services.